logo
Search for airport 
image banner adimage banner adimage banner ad
image banner ad

LGPAXO - Paxoi

Located in Gaios, Greece

ICAO - , IATA -

Data provided by Airmate  

General information

Coordinates: N39°12'16" E20°11'3"
Elevation is 200 feet MSL.
Magnetic variation is 4° East
View others Airports in Ioannina

Operational data

Special qualification required
Current time UTC:
Current local time:
METAR: LGKR 281920Z 24003KT 9999 FEW020 21/16 Q1014 NOSIG
TAF: TAF LGKR 281700Z 2818/2918 VRB05KT 9999 SCT018 TEMPO 2911/2915 24010KT TEMPO 2909/2915 SCT018 BKN040
View NOTAMs / SUP AIP / TFR affecting this airport [VIEW]
Communications frequencies: [VIEW]

Runways:

Airport contact information

Address: Gaios Greece

Satellite view of LGPAXO